Location: Unspecified
(0.0000°N, 0.0000°E)
Time: 23:35:32
(UTC+00:00)

S-56A Canister/Altair - Pass Details

Date: 10 October 2020
Orbit: 633 x 2499 km, 38.9° (Epoch: 28 October)

Event Time Altitude Azimuth Distance (km) Brightness Sun altitude
Rises 08:30:41 0° 247° (WSW) 3,834 10.7 40.6°
Reaches altitude 10° 08:33:08 10° 254° (WSW) 3,086 10.3 41.2°
Maximum altitude 08:40:32 45° 324° (NW) 2,007 9.8 43.0°
Drops below altitude 10° 08:51:29 10° 33° (NNE) 4,501 11.8 45.7°
Sets 08:55:54 0° 38° (NE) 5,748 12.3 46.8°
